Vorticity
nan nan nan nan nan nan nan nan nan nan nan nan nan nan nan nan nan nan nan nan nan nan nan nan nan nan nan nan nan nan nan nan nan nan nan nan nan nan nan nan nan nan nan nan nan nan nan nan nan nan nan nan nan nan nan nan nan nan nan nan nan nan nan nan nan nan nan nan nan nan nan nan nan nan nan nan nan nan nan nan nan nan nan nan nan nan
nan 8 10 11 8 6 10 13 10 8 8 8 8 9 9 8 7 8 8 8 8 8 9 9 9 8 8 8 7 6 5 5 5 5 5 5 5 5 5 6 6 6 7 9 10 12 13 13 12 11 10 9 10 10 12 13 14 14 13 12 11 10 9 8 7 7 7 7 8 9 9 8 8 10 11 10 9 10 12 15 17 18 16 14 12 nan
nan 8 10 12 9 5 7 10 9 9 9 9 10 11 9 7 6 7 8 8 7 7 8 8 8 8 8 8 7 6 5 4 4 4 4 4 4 5 5 5 5 6 6 8 9 11 13 14 13 11 10 9 9 9 10 12 13 13 13 12 12 12 12 11 10 9 9 10 11 12 11 10 9 11 12 11 9 9 11 13 15 15 13 12 10 nan
nan 9 10 10 10 8 7 8 9 10 10 10 10 11 8 6 7 8 9 8 7 7 8 8 8 8 8 9 8 7 5 4 4 4 4 4 4 5 5 5 5 6 6 7 8 9 11 13 13 12 10 9 8 8 9 10 11 12 12 12 13 12 13 12 12 11 12 12 12 12 11 11 11 12 15 14 11 9 9 11 12 12 10 9 8 nan
nan 10 11 10 10 11 12 10 10 10 10 10 10 10 9 7 8 9 9 8 7 7 8 9 9 8 7 8 8 7 6 5 4 4 5 5 5 5 5 6 6 6 6 6 7 8 9 11 12 12 10 9 8 8 8 10 11 12 12 13 13 12 12 11 11 11 12 13 11 10 8 9 11 13 18 20 17 14 10 9 8 8 7 7 6 nan
nan 10 11 9 10 11 13 11 11 10 10 10 10 10 9 8 7 7 7 7 7 7 8 8 9 8 6 6 7 7 8 7 7 7 7 6 6 6 7 7 7 7 7 7 7 7 8 9 10 11 11 10 9 8 8 9 10 11 12 13 12 12 11 10 10 10 12 12 10 8 6 7 9 12 18 25 26 23 16 10 7 5 5 5 6 nan
nan 9 10 9 9 10 10 10 10 9 8 8 9 9 9 9 8 8 7 6 7 7 7 8 8 8 8 8 9 9 11 12 12 12 12 11 11 10 10 9 8 8 8 8 8 7 8 8 9 10 10 10 9 9 8 9 10 11 12 12 12 12 11 10 10 10 11 11 9 7 5 6 7 10 15 24 31 33 28 18 9 5 4 5 6 nan
nan 6 6 8 8 8 8 9 10 9 7 7 7 7 6 7 8 9 10 8 8 7 7 8 8 9 11 12 12 12 12 13 15 16 17 17 17 16 14 13 11 10 10 9 9 9 8 8 8 9 10 10 10 9 9 9 10 11 12 12 12 11 10 10 10 10 10 10 9 7 5 5 6 7 10 17 26 34 37 30 20 14 9 8 9 nan
nan 4 5 7 7 6 6 9 11 11 9 7 7 6 6 5 5 7 9 10 11 10 9 8 8 9 11 13 13 12 11 10 10 10 12 14 15 15 15 15 15 14 12 11 10 10 9 8 8 9 10 11 11 11 10 10 11 13 14 13 12 11 10 10 9 9 10 10 9 7 6 6 6 6 6 9 14 22 30 33 31 25 19 16 16 nan
nan 7 7 8 9 8 8 10 13 15 12 9 8 8 9 8 6 5 5 7 9 11 12 10 9 9 10 11 11 11 12 11 10 9 8 7 8 9 11 12 13 14 13 11 11 10 9 8 8 8 10 11 12 12 12 12 13 15 15 14 12 10 9 9 9 10 10 10 10 8 7 7 6 6 5 5 7 10 16 21 24 25 23 21 20 nan
nan 13 11 11 11 12 12 13 14 15 15 12 10 10 11 12 10 8 7 6 5 7 11 12 11 10 9 10 10 11 12 12 14 15 14 13 12 11 12 12 12 12 13 13 12 11 10 9 9 9 10 11 12 13 14 14 15 15 15 14 12 10 9 9 9 10 11 11 10 9 8 8 7 7 6 5 5 5 7 9 12 15 15 15 15 nan
nan 13 13 12 11 11 11 11 11 12 13 11 9 9 10 12 12 12 11 8 6 5 8 11 13 12 11 9 9 10 11 11 12 13 15 17 17 17 17 16 16 16 17 17 18 17 15 14 12 11 11 12 13 14 14 15 16 15 13 11 10 9 8 9 9 10 11 12 11 11 10 9 9 8 7 6 6 5 6 6 7 8 9 9 9 nan
nan 10 10 10 9 8 8 6 5 7 8 7 7 7 9 13 14 13 12 10 8 8 8 8 10 12 13 10 9 9 10 10 10 10 10 12 14 15 15 15 15 16 17 17 19 21 22 21 19 17 14 13 14 15 15 14 15 14 11 9 8 8 8 9 10 11 12 12 12 12 11 11 11 10 9 9 8 8 8 8 9 9 10 10 9 nan
nan 9 8 9 9 9 10 7 4 3 4 6 7 8 10 12 13 12 10 10 10 11 10 6 6 7 12 13 11 8 8 8 9 10 9 10 11 11 11 10 11 11 12 12 14 17 19 21 21 24 22 16 15 16 17 17 16 13 9 8 7 8 8 10 11 11 12 12 12 12 12 12 12 11 11 10 10 10 10 10 11 11 12 12 11 nan
nan 10 10 10 10 10 10 10 8 7 7 8 9 10 11 9 9 9 10 10 11 12 10 8 6 6 9 13 14 12 8 7 8 9 9 10 12 13 10 9 9 9 10 10 11 14 16 15 15 20 25 22 18 17 19 21 20 14 9 8 8 8 9 10 11 11 11 12 12 12 12 12 11 11 10 10 10 9 9 9 9 10 11 12 12 nan
nan 10 11 11 10 9 9 10 11 12 12 11 11 10 8 6 6 8 10 12 12 12 9 9 10 11 11 14 14 13 10 8 9 10 10 10 12 15 13 9 9 9 10 10 10 12 14 14 14 15 21 25 22 20 19 21 22 16 11 10 9 9 10 10 10 11 11 11 10 10 10 10 10 9 9 8 8 8 7 7 7 7 8 8 9 nan
nan 9 10 10 10 10 11 12 12 12 12 12 12 11 9 8 8 9 10 11 10 9 9 9 10 10 11 11 13 15 12 9 9 10 11 10 11 14 15 12 10 9 9 10 11 12 12 12 12 14 20 26 26 23 20 21 20 17 13 12 11 11 11 11 10 10 10 10 9 9 8 8 8 8 7 7 7 6 6 6 5 5 5 6 6 nan
nan 9 8 8 9 10 12 13 12 11 11 11 11 11 10 10 10 10 10 9 7 6 7 8 8 8 7 6 10 17 15 10 9 10 11 10 10 12 14 13 11 9 9 10 11 12 12 12 12 12 21 29 25 23 20 18 18 15 13 12 12 11 11 11 10 10 9 9 8 7 7 7 7 7 7 6 6 6 5 5 5 5 5 5 5 nan
nan 9 9 10 10 9 9 9 9 10 10 10 9 10 10 11 10 10 9 8 8 7 8 7 7 6 7 6 9 16 16 11 9 8 8 9 10 11 13 12 11 10 10 12 13 13 14 14 16 16 22 25 23 21 18 16 15 13 11 11 11 11 11 11 10 10 9 8 8 7 7 6 6 6 6 6 6 6 6 5 5 5 5 5 5 nan
nan 8 8 8 9 10 11 13 13 12 10 10 10 10 10 10 10 9 9 8 9 9 10 9 7 5 8 10 12 15 14 10 8 8 8 9 10 12 12 11 10 9 10 12 14 15 15 16 18 19 21 21 21 18 14 12 11 10 10 10 10 10 10 10 10 10 9 8 8 7 7 6 6 6 6 6 6 6 6 5 5 5 5 5 6 nan
nan 9 6 3 6 10 12 13 13 12 11 11 12 13 12 10 10 9 10 10 10 9 9 8 9 8 9 10 11 16 13 7 6 6 10 10 9 9 12 12 10 9 9 12 13 14 13 13 15 18 20 21 18 15 12 10 9 9 9 9 10 10 10 10 10 9 9 8 8 7 7 6 6 6 6 6 6 6 6 6 6 6 6 6 6 nan
nan 9 7 5 6 6 4 2 5 9 12 12 11 12 13 12 11 11 11 11 11 11 9 9 10 12 13 14 13 16 13 6 5 4 7 10 10 9 12 13 12 11 9 11 11 12 11 11 13 17 22 22 16 13 10 9 9 9 9 9 10 10 9 9 9 9 8 8 8 7 7 7 7 6 6 6 6 6 6 6 6 6 6 6 6 nan
nan 7 7 8 7 5 3 4 7 11 15 15 12 9 9 12 12 13 14 13 11 12 11 11 11 11 12 15 14 15 13 8 6 5 5 7 11 12 12 13 12 11 10 11 11 11 11 10 11 15 25 26 16 12 10 8 8 9 10 10 10 10 9 9 9 9 8 8 8 7 7 7 7 7 6 6 6 6 6 6 6 6 6 7 7 nan
nan 8 9 9 7 5 5 6 8 10 12 13 13 11 9 9 10 12 14 15 13 13 12 10 7 6 6 7 8 11 13 10 8 7 6 8 9 10 12 13 11 10 10 9 10 11 12 10 9 10 24 31 23 16 11 9 9 9 10 10 10 10 9 9 9 9 8 8 8 8 7 7 7 7 6 6 6 6 6 6 6 6 7 7 8 nan
nan 4 4 2 -0 -4 -6 -7 -6 -5 -2 5 8 10 10 10 11 12 14 15 14 13 12 8 5 4 6 6 5 7 12 12 10 7 6 8 10 10 12 13 10 9 9 8 10 12 13 11 9 8 17 29 30 24 16 11 10 10 11 11 10 10 9 9 9 8 8 8 8 8 8 7 7 7 6 6 6 6 6 7 7 7 8 8 8 nan
nan -8 -9 -10 -10 -10 -11 -12 -12 -11 -9 -5 -0 3 7 10 11 11 11 13 13 12 10 8 7 6 7 7 8 8 11 12 11 8 5 6 9 10 12 12 10 9 9 7 10 12 13 11 10 9 11 21 29 31 24 16 13 11 11 11 11 10 9 9 9 9 9 8 8 8 8 7 7 7 6 6 6 7 7 7 8 8 8 9 9 nan
nan -5 -5 -5 -3 -1 1 1 1 2 4 1 -3 -4 -1 5 7 8 8 11 12 11 9 9 9 9 9 9 10 11 11 11 11 10 7 5 6 8 12 13 12 9 7 7 10 12 12 11 11 10 9 10 20 36 36 23 17 14 12 11 11 10 9 9 9 9 9 8 8 8 7 7 7 6 6 7 7 7 8 8 8 8 7 7 8 nan
nan 12 12 11 12 13 14 15 16 16 17 15 11 6 3 4 6 8 9 10 11 10 8 8 8 9 10 11 12 13 11 10 11 11 9 6 7 8 13 14 12 9 6 7 10 12 12 12 12 12 10 8 12 26 38 35 26 20 14 12 11 10 9 9 9 9 9 8 8 8 7 7 7 7 7 7 7 8 8 9 8 6 3 2 5 nan
nan 27 24 23 23 24 25 24 22 20 18 18 20 22 18 11 8 8 10 11 11 10 9 8 8 8 9 12 12 13 11 11 13 13 9 5 6 9 13 14 12 8 5 6 9 11 11 12 12 12 13 10 9 13 30 39 34 27 22 17 11 9 9 9 9 9 8 8 8 7 7 7 7 7 7 7 8 8 9 8 4 0 0 3 6 nan
nan 26 26 26 25 25 24 22 20 17 14 15 18 24 25 18 13 9 9 9 10 11 11 10 9 8 7 9 11 11 13 16 16 14 9 3 5 9 12 13 11 8 4 4 6 10 12 12 11 11 13 13 10 7 17 28 29 27 29 25 17 13 12 10 9 9 8 8 7 7 7 7 7 7 8 8 8 9 9 5 -1 -4 1 7 7 nan
nan 15 16 17 17 16 15 14 15 15 15 17 19 20 19 16 13 11 11 10 10 11 12 13 12 11 7 4 6 7 13 20 20 14 7 3 6 10 11 10 10 9 5 3 4 6 10 11 11 11 12 13 11 8 9 15 19 22 23 21 21 24 21 13 10 10 10 9 8 8 7 7 7 8 8 8 9 9 7 3 -3 -4 3 9 7 nan
nan 10 10 10 10 10 10 12 13 14 16 18 19 17 14 11 9 9 11 12 11 10 11 11 12 13 9 4 3 3 10 20 23 16 4 2 7 12 12 10 9 9 8 7 6 6 9 10 10 10 12 14 12 10 8 8 12 19 19 14 17 28 26 13 9 9 12 14 12 9 7 7 8 8 8 8 8 8 7 2 -4 -4 3 9 8 nan
nan 8 8 8 8 8 8 9 9 10 12 14 14 14 13 12 10 9 8 9 10 10 9 9 10 10 9 7 5 4 7 17 24 19 3 -3 4 11 14 11 10 9 9 8 8 10 11 11 10 10 13 14 13 11 9 8 10 15 16 13 14 22 20 11 8 8 13 16 16 15 12 9 9 8 8 8 8 7 7 3 -1 -3 0 7 9 nan
nan 8 7 7 7 8 8 8 8 9 10 10 11 11 12 13 13 12 10 9 9 10 10 9 9 10 9 9 8 8 7 14 23 19 3 -5 2 10 14 12 10 9 8 6 6 8 11 12 11 10 14 15 14 12 10 9 10 11 14 15 14 15 14 11 9 10 13 13 13 17 17 15 16 12 9 9 8 8 7 4 2 1 -1 1 6 nan
nan 11 10 10 10 10 10 10 10 10 10 10 11 12 11 12 12 12 12 10 10 9 10 10 10 11 11 9 8 9 9 15 22 17 4 -2 1 7 13 13 11 9 8 6 4 4 7 11 11 10 12 14 13 11 10 10 10 9 13 16 15 14 12 11 10 11 11 11 11 13 15 16 18 16 15 15 12 11 9 6 4 3 2 1 1 nan
nan 16 15 14 13 12 12 12 12 12 11 11 12 12 12 12 12 12 12 11 11 10 10 9 10 10 9 8 7 7 9 17 22 17 5 0 2 4 9 14 14 10 7 7 6 4 5 9 11 10 9 10 10 10 9 9 9 9 12 15 16 15 13 11 10 10 11 11 11 11 12 14 15 16 23 24 17 13 10 8 6 5 4 3 1 nan
nan 16 16 15 14 13 12 12 12 12 11 11 11 11 11 12 11 11 11 11 10 10 11 12 12 12 7 5 6 5 6 12 18 18 7 1 3 4 6 13 16 12 7 7 7 6 5 6 8 8 7 8 9 10 11 10 8 8 10 12 13 15 14 12 11 10 10 10 10 11 11 12 13 15 25 27 18 14 12 9 6 6 6 5 3 nan
nan 12 12 11 11 11 11 11 11 11 11 10 10 10 11 11 11 11 13 14 13 11 10 11 13 18 15 8 6 5 6 10 15 18 9 1 3 4 5 10 15 13 9 9 9 8 7 6 6 5 5 7 10 12 13 12 10 9 8 8 10 13 15 15 12 10 9 11 11 11 10 9 10 13 18 19 14 12 12 13 14 13 10 8 8 nan
nan 9 9 9 9 9 10 9 10 10 10 10 8 8 9 11 13 13 12 14 15 14 9 7 9 14 19 17 14 10 8 11 15 18 12 3 3 4 6 9 13 13 11 10 10 10 8 6 6 5 5 7 10 12 13 14 13 10 8 5 8 11 14 16 15 11 10 11 11 9 8 8 9 10 12 13 12 11 11 13 15 14 9 10 14 nan
nan 9 10 10 10 10 9 9 9 10 10 10 9 9 10 12 15 16 14 13 14 15 14 10 7 9 14 17 19 17 13 14 17 15 11 6 6 5 6 7 10 13 13 10 11 12 9 7 8 8 6 6 9 11 12 13 14 14 7 2 7 13 14 13 15 13 11 11 11 8 7 9 11 11 11 12 11 10 9 11 13 13 9 7 11 nan
nan 10 10 12 13 12 12 11 10 9 8 8 9 10 12 13 13 14 14 14 15 16 19 16 12 9 10 13 16 19 22 22 21 14 11 10 7 3 3 6 9 13 13 11 10 12 11 9 9 8 7 8 9 11 12 15 17 15 5 0 6 12 14 11 10 12 13 12 12 11 10 9 11 11 10 9 8 9 10 12 13 13 9 7 9 nan
nan 11 11 12 12 12 11 10 9 9 8 8 9 10 11 12 12 11 12 13 13 12 13 15 15 14 12 10 10 12 19 24 25 21 16 12 8 4 2 4 7 11 12 12 11 11 11 10 9 10 10 8 7 8 13 17 16 13 6 5 7 7 8 9 9 13 15 13 12 14 10 7 10 12 11 7 7 10 14 15 15 12 7 8 10 nan
nan 11 11 11 11 10 10 10 11 11 11 11 11 12 13 13 12 11 11 12 11 8 7 9 12 12 11 9 8 8 10 14 20 24 22 17 13 7 4 4 5 7 9 10 11 12 13 11 9 10 12 11 10 10 11 12 13 13 12 11 5 -1 3 12 13 14 14 14 12 11 9 9 10 12 12 9 9 11 14 16 15 11 6 6 11 nan
nan 11 11 11 11 11 13 14 14 14 14 14 14 13 14 13 12 11 11 11 10 9 8 10 11 13 12 10 9 8 7 8 11 18 26 26 18 10 8 9 7 8 7 6 8 10 13 13 11 11 13 13 12 11 10 12 13 12 14 13 8 3 4 13 16 12 10 12 12 12 12 10 10 10 11 11 10 12 12 11 11 13 10 7 10 nan
nan 11 11 12 14 14 13 14 14 14 14 13 13 11 10 10 11 12 10 9 10 10 10 11 11 13 14 13 11 9 8 8 9 10 19 28 26 18 11 11 12 12 9 6 7 8 9 12 12 11 12 14 13 11 10 11 12 14 14 11 8 6 10 15 16 11 9 11 11 13 13 11 10 9 9 10 10 11 12 11 10 10 10 10 11 nan
nan 9 10 12 13 13 12 12 12 11 10 9 9 9 9 9 10 10 10 9 10 11 12 11 9 9 10 12 11 9 8 8 8 8 11 17 22 24 19 15 15 14 13 12 11 9 8 10 12 10 10 13 13 12 12 12 11 12 14 13 8 6 11 14 15 12 10 9 11 13 13 10 8 8 9 10 10 10 11 12 11 9 8 9 10 nan
nan 9 10 10 9 9 9 8 8 8 8 8 9 10 10 10 9 9 11 11 12 13 13 12 11 10 9 8 8 8 7 8 8 8 9 11 14 18 19 18 19 17 16 16 17 15 13 15 14 11 9 10 10 11 12 13 13 12 13 12 10 7 8 12 14 13 11 10 13 14 11 6 7 8 10 9 9 9 10 11 13 13 10 9 9 nan
nan 10 11 10 9 8 8 9 9 9 9 10 10 11 12 11 9 9 13 15 14 14 13 12 12 12 11 9 9 8 9 10 9 9 9 10 12 13 14 14 14 14 15 16 17 18 19 20 19 17 13 9 8 10 12 12 12 12 12 12 10 8 8 11 13 13 12 14 15 13 7 5 7 9 9 7 7 9 10 10 10 12 13 12 11 nan
nan 11 11 10 10 10 11 11 11 10 10 10 10 11 12 13 13 12 12 14 13 12 12 12 11 11 11 10 10 11 12 12 12 12 11 11 11 11 11 10 9 9 9 10 11 12 13 13 14 16 20 19 15 13 12 12 12 11 12 12 11 10 9 10 12 13 13 16 16 12 6 5 8 10 10 8 8 9 8 7 8 9 11 13 12 nan
nan 11 11 11 11 11 11 10 10 10 10 10 10 10 12 14 16 15 12 11 11 10 11 12 11 10 10 10 11 12 13 12 12 12 11 11 12 11 10 9 8 7 5 5 7 9 8 6 4 6 13 21 23 22 16 12 11 10 10 11 11 10 10 10 12 13 14 14 15 13 8 5 8 10 11 11 10 8 7 6 6 7 10 13 13 nan
nan nan nan nan nan nan nan nan nan nan nan nan nan nan nan nan nan nan nan nan nan nan nan nan nan nan nan nan nan nan nan nan nan nan nan nan nan nan nan nan nan nan nan nan nan nan nan nan nan nan nan nan nan nan nan nan nan nan nan nan nan nan nan nan nan nan nan nan nan nan nan nan nan nan nan nan nan nan nan nan nan nan nan nan nan nan
CAPE
nan 0 1 1 1 1 0 0 nan nan nan 0 0 0 1 0 0 0 1 1 1 0 0 0 0 0 0 nan nan nan nan nan 0 0 0 0 0 0 0 0 0 0 nan nan nan nan nan nan nan nan nan nan 0 0 8 26 26 42 61 65 65 66 53 35 35 22 15 13 7 7 4 8 14 14 1 1 3 3 24 77 77 105 115 122 122 163
0 0 0 1 1 0 0 0 nan nan nan nan 0 0 0 0 1 1 1 1 1 1 0 1 1 1 1 0 0 0 0 0 0 0 0 0 0 0 0 0 0 0 0 0 0 nan nan nan nan nan nan nan nan nan 1 10 10 22 42 49 49 67 57 46 46 38 31 35 18 18 12 1 nan nan nan 3 18 18 53 80 80 102 111 137 137 177
nan 0 0 0 0 0 nan nan 1 1 nan nan 0 0 1 1 1 1 1 0 0 0 0 1 1 1 1 1 1 1 0 0 0 0 0 1 1 1 1 1 1 1 1 1 1 0 nan nan nan nan nan nan nan nan 0 2 2 3 5 17 17 25 30 34 34 31 36 29 12 12 2 nan nan nan nan 8 47 47 62 91 91 96 118 143 143 198
nan nan 0 0 0 0 nan nan 0 0 0 nan 0 0 1 1 1 1 1 0 0 nan nan 0 0 1 1 0 0 0 0 0 1 1 1 1 1 1 1 1 1 1 1 1 1 1 0 nan nan nan nan nan nan nan nan 0 0 0 0 1 1 2 6 7 7 8 12 1 nan nan nan nan nan nan nan 23 53 53 64 67 67 79 109 158 158 205
nan nan nan 0 0 0 nan nan 0 0 1 1 1 1 1 1 1 1 1 0 0 nan nan 0 0 0 1 1 1 1 1 1 1 1 1 1 1 1 1 1 1 1 1 0 0 1 1 nan nan nan nan nan nan nan nan nan nan nan 0 0 0 0 0 nan nan nan nan nan nan nan nan nan nan nan nan 11 52 52 68 71 71 78 99 156 156 206
8 0 nan nan nan nan nan 0 0 0 0 1 1 1 1 0 0 0 0 2 2 1 1 0 0 1 1 2 0 0 1 1 1 1 1 1 1 1 1 1 1 1 1 0 0 0 0 0 0 nan nan nan nan nan nan nan nan nan nan nan nan nan nan nan nan nan nan nan nan nan nan nan nan nan nan 7 41 41 70 74 74 82 110 135 135 203
29 9 nan nan nan 1 nan 0 0 0 1 0 0 0 0 1 0 0 0 1 1 1 1 1 1 1 1 0 0 0 0 1 0 0 0 1 1 1 1 1 1 1 1 1 1 0 0 0 0 0 nan nan nan nan nan nan nan nan nan nan nan nan nan nan nan nan nan nan nan nan nan nan nan nan nan nan 17 17 80 93 93 104 105 132 132 178
46 33 0 0 0 nan 0 0 0 0 0 0 nan nan nan 0 0 0 0 1 1 0 1 1 1 1 nan nan nan nan nan nan nan nan nan nan nan nan 0 1 1 1 2 1 1 1 0 0 0 nan nan nan nan nan nan nan nan nan nan nan nan nan nan nan nan nan nan nan nan nan nan nan nan nan nan nan nan nan nan 33 33 122 168 157 157 168
38 43 13 1 1 2 4 nan 0 0 1 0 nan nan 0 nan nan nan 0 0 0 0 1 0 0 nan nan nan nan nan nan nan nan nan nan nan nan nan 0 0 0 1 2 2 2 1 1 0 0 nan nan nan nan nan nan nan nan nan nan nan nan nan nan nan nan nan nan nan nan nan nan nan nan nan nan nan nan nan nan nan nan 29 84 117 117 130
39 41 41 24 24 12 19 45 nan nan 0 0 0 0 0 2 0 0 nan nan nan 0 0 1 1 nan 0 nan nan nan nan nan nan nan nan nan nan nan 0 0 0 1 1 2 2 2 1 1 1 0 nan nan nan nan nan nan nan nan nan nan nan nan nan nan nan nan nan nan nan nan nan nan nan nan nan nan nan nan nan nan nan 0 5 34 34 45
38 41 47 44 44 9 0 nan 0 0 0 1 0 0 0 1 1 1 2 3 3 nan 0 1 1 0 nan 0 nan nan nan nan nan nan nan nan 0 0 0 1 1 2 2 2 2 2 2 1 1 1 0 0 nan nan nan nan nan nan nan nan nan nan nan nan nan nan nan nan nan nan nan nan nan nan nan nan nan nan nan nan nan nan 1 4 4 16
52 42 35 31 31 1 nan nan 1 1 1 0 0 0 nan nan 1 1 0 1 1 nan nan 0 0 0 nan nan nan nan nan nan nan nan nan 0 1 1 1 2 2 2 3 2 2 2 2 1 1 1 1 0 nan nan nan nan nan nan nan nan nan nan nan nan nan nan nan nan nan nan nan nan nan nan nan nan nan nan nan nan nan nan nan 3 3 8
54 39 38 37 37 20 5 nan 0 0 0 nan nan nan 0 nan nan nan nan 0 0 1 nan nan nan 0 nan 0 nan nan nan nan nan nan nan 0 1 1 2 3 3 3 4 3 3 3 2 2 2 2 1 1 nan nan nan nan nan nan nan nan nan nan nan nan nan nan nan nan nan nan nan nan nan nan nan nan nan nan nan nan nan nan nan 1 1 6
54 43 41 35 35 35 23 3 nan nan nan nan 1 1 1 nan nan nan nan 0 0 1 nan nan nan nan nan 0 0 0 0 nan 0 0 0 0 0 0 1 2 2 3 4 4 4 4 3 3 3 2 1 1 nan nan nan nan nan nan nan nan nan nan nan nan nan nan nan nan nan nan nan nan nan nan nan nan nan nan nan nan nan nan nan nan nan 3
44 44 44 34 34 40 47 33 31 31 28 8 2 2 nan nan nan nan nan 1 1 nan nan nan nan 3 nan nan 0 0 0 0 2 2 2 1 2 2 1 2 2 4 4 4 4 4 4 5 5 6 3 2 1 1 nan nan nan nan nan nan nan nan nan nan nan nan nan nan nan nan nan nan nan nan nan nan nan nan nan nan nan nan nan nan nan nan
37 45 47 50 50 54 53 44 47 47 39 17 3 3 nan nan nan nan nan nan nan nan nan 0 0 1 3 nan 0 0 0 1 2 2 3 2 2 2 4 3 3 3 3 4 4 5 7 10 10 8 5 0 nan nan nan nan nan nan nan nan nan nan nan nan nan nan nan nan nan nan nan nan nan nan nan nan nan nan nan nan nan nan nan nan nan nan
40 50 57 61 61 57 55 50 45 45 35 20 10 10 1 nan nan nan nan nan nan nan nan nan nan nan 0 nan nan nan 1 1 3 3 3 2 nan nan 3 4 4 3 4 4 4 5 7 9 9 8 5 nan nan nan nan nan nan nan nan nan nan nan nan nan nan nan nan nan nan nan nan nan nan nan nan nan nan nan nan nan nan nan nan nan nan nan
35 46 59 61 61 48 56 45 34 34 39 25 10 10 2 1 nan nan nan nan nan nan nan 0 0 nan 1 0 nan nan 2 1 3 3 2 2 nan nan nan 3 3 3 4 5 5 6 8 9 9 9 3 nan nan nan nan nan nan nan nan nan nan nan nan nan nan nan nan nan nan nan nan nan nan nan nan nan nan nan nan nan nan nan nan nan nan nan
35 42 57 57 57 63 73 54 41 41 47 35 15 15 5 1 nan nan nan nan nan nan nan nan nan nan nan 2 nan nan 1 1 2 2 2 2 1 1 0 0 0 4 4 5 5 8 11 11 11 5 nan nan nan nan nan nan nan nan nan nan nan nan nan nan nan nan nan nan nan nan nan nan nan nan nan nan nan nan nan nan nan nan nan nan nan nan
35 40 54 62 62 74 84 77 63 63 55 37 26 26 15 4 nan nan nan nan nan nan nan nan nan nan nan 3 nan nan 1 2 1 1 2 2 0 0 0 1 1 4 3 6 6 10 2 7 7 4 nan nan nan nan nan nan nan nan nan nan nan nan nan nan nan nan nan nan nan nan nan nan nan nan 0 0 0 0 nan nan nan nan nan nan nan nan
35 36 35 52 52 74 91 99 101 101 61 41 37 37 23 9 3 3 nan nan nan nan nan 0 0 nan 0 nan nan nan 0 1 1 1 1 3 nan nan 0 1 1 5 3 8 8 2 nan nan nan 2 0 nan nan nan nan nan nan nan nan nan nan nan nan nan nan nan nan nan nan nan nan nan nan nan 0 0 0 0 nan nan nan nan nan nan nan nan
30 24 24 44 44 67 78 71 63 63 59 41 14 14 20 15 8 8 2 nan nan nan nan 0 0 1 1 4 nan nan 0 0 nan nan 1 2 nan nan 1 1 1 5 4 3 3 nan nan nan nan nan 2 nan nan nan nan nan nan nan nan nan nan nan nan nan nan nan nan 0 0 0 0 nan nan nan 0 0 0 0 nan nan nan nan nan nan nan nan
24 19 29 45 45 58 65 66 61 61 74 39 14 14 24 33 16 16 5 nan nan nan nan nan nan nan nan nan nan nan 1 0 nan nan 1 2 2 2 0 1 1 3 3 6 6 nan nan nan nan nan nan 0 nan nan nan nan nan nan nan nan nan nan nan nan nan nan 0 0 0 0 0 0 nan nan 0 0 nan nan nan nan nan nan nan nan nan nan
20 19 25 27 27 40 55 70 66 66 36 20 14 14 14 12 8 8 2 0 0 nan nan nan nan nan nan nan 1 1 1 1 1 1 3 2 nan nan 0 1 1 2 4 nan nan 0 nan nan nan nan nan nan nan nan nan nan nan nan nan nan nan nan nan nan nan nan 0 0 0 0 0 0 nan nan nan nan nan nan nan nan nan nan nan nan nan nan
22 20 16 24 24 38 59 84 79 79 48 10 1 1 nan nan 0 0 nan nan nan nan nan nan nan nan 0 0 0 0 1 2 3 3 5 4 nan nan 0 2 2 2 1 nan nan 0 nan nan nan nan nan nan nan nan nan nan nan nan nan nan nan nan nan nan nan nan 0 1 1 1 1 1 0 0 nan 0 nan nan nan nan nan nan nan nan nan nan
23 22 22 24 24 34 44 47 74 74 79 51 10 10 5 2 nan nan nan nan nan nan 0 0 0 0 2 1 0 0 0 1 3 3 5 3 0 0 nan 2 2 1 1 nan nan 0 nan nan nan nan nan nan 0 0 nan nan nan nan nan nan nan nan nan nan nan nan 0 1 1 1 1 1 0 0 nan nan nan nan nan nan nan nan nan nan nan nan
27 25 29 30 30 33 41 51 60 60 69 80 59 59 23 8 1 1 nan nan nan nan nan 0 0 2 5 2 3 3 0 0 2 2 5 5 nan nan nan 0 0 2 0 nan nan nan 0 nan nan nan nan nan nan nan nan nan nan nan nan nan nan nan nan nan nan 0 1 1 1 1 1 1 0 0 nan nan nan nan nan nan nan nan nan nan nan nan
19 19 23 24 24 24 35 57 69 69 76 87 89 89 58 20 14 14 8 1 1 nan nan 0 0 1 3 1 2 2 0 0 1 1 4 7 0 0 0 0 0 3 nan nan nan nan 0 nan nan nan nan nan nan nan nan nan nan nan nan nan nan nan nan 0 0 1 1 1 1 1 1 1 0 0 nan nan nan nan nan nan nan nan nan nan nan nan
8 13 18 20 20 31 56 84 86 86 78 76 84 84 63 27 30 30 43 24 24 0 nan nan nan 1 4 5 nan nan nan 0 1 1 2 4 4 4 nan 1 1 2 nan nan nan 1 0 0 0 0 nan nan nan nan nan nan nan nan nan nan nan nan nan 0 0 1 2 1 1 1 1 1 1 1 0 nan nan nan nan nan nan nan nan nan nan nan
15 23 31 45 45 61 63 74 69 69 58 53 67 67 78 35 24 24 29 8 8 4 2 0 0 2 0 nan nan nan nan 0 1 1 1 4 nan nan nan 1 1 1 nan nan nan 0 0 0 0 nan nan nan nan nan nan 0 0 nan nan nan nan nan 0 1 1 1 2 2 2 2 2 2 1 1 0 nan nan nan nan nan nan nan nan nan nan nan
46 51 45 44 44 44 45 50 44 44 40 35 40 40 87 73 35 35 38 nan nan 3 4 1 1 6 1 nan nan nan nan 0 nan nan 0 2 nan nan nan 1 1 1 0 nan nan nan nan 0 0 nan nan 0 nan nan nan nan nan nan nan nan nan 1 1 0 0 1 1 2 2 2 2 2 1 1 1 nan nan nan nan nan nan nan nan nan nan nan
41 26 18 13 13 19 17 21 33 33 40 39 35 35 33 40 56 56 89 83 83 27 2 3 3 6 4 4 2 2 0 nan nan nan nan 0 0 0 nan 1 1 1 0 2 2 2 1 nan nan nan nan nan nan nan nan nan nan nan nan nan nan nan nan 1 1 2 2 4 3 3 2 2 2 2 1 1 0 0 0 1 1 nan nan nan nan nan
45 28 20 15 15 14 11 15 19 19 25 36 44 44 41 41 42 42 52 73 73 104 55 17 17 13 10 16 9 9 nan nan nan nan nan 0 nan nan nan 0 0 0 0 nan nan nan nan nan nan nan nan nan nan nan nan nan nan nan nan nan nan nan 0 2 2 1 2 3 4 4 5 3 3 3 2 1 1 1 1 1 1 nan nan nan nan nan
27 21 17 12 12 7 5 9 10 10 10 17 36 36 49 59 51 51 51 64 64 107 73 58 58 42 25 23 20 20 4 nan nan nan nan 0 0 0 0 0 0 0 0 nan nan nan nan nan nan nan nan nan nan nan nan nan nan nan nan nan nan nan nan nan nan nan 0 0 nan nan 2 4 8 8 5 3 3 3 3 2 2 nan nan nan nan nan
17 12 7 6 6 3 2 2 1 1 1 3 15 15 45 75 73 73 60 69 69 97 94 68 68 54 37 29 38 38 86 nan nan nan nan 0 nan nan nan 0 0 0 0 nan nan nan nan nan nan nan nan nan nan nan nan nan nan nan nan nan nan nan nan nan nan nan nan nan nan nan nan 1 4 4 5 5 5 5 5 3 3 0 nan nan nan nan
23 12 11 7 7 6 4 4 2 2 2 0 3 3 28 67 81 81 78 99 99 113 119 114 114 92 58 53 61 61 79 nan nan nan nan nan nan nan nan nan nan 0 0 nan nan 0 nan nan nan nan nan nan nan nan nan nan nan nan nan nan nan nan nan nan nan nan nan nan nan nan nan nan 2 2 4 7 7 7 7 6 6 2 nan nan nan nan
7 8 19 12 12 8 6 5 4 4 2 0 1 1 14 51 121 121 162 157 157 136 135 138 138 109 80 75 62 62 67 nan nan nan nan nan nan nan nan nan nan 0 0 0 0 0 nan nan nan nan nan nan nan nan nan nan nan nan nan nan nan nan nan nan nan nan nan nan nan nan nan nan 1 1 5 9 9 9 10 8 8 4 0 nan nan nan
17 27 23 11 11 5 5 3 2 2 0 nan nan nan 8 35 100 100 195 203 203 134 121 115 115 87 102 80 25 25 84 3 nan nan nan nan nan nan nan nan nan nan 0 nan nan nan nan nan nan nan nan nan nan nan nan nan nan nan nan nan nan nan nan nan nan nan nan nan 0 0 0 nan 0 0 2 7 7 7 7 7 7 8 3 2 2 0
26 17 12 8 8 3 1 0 nan nan nan nan 1 1 7 24 87 87 154 142 142 139 167 152 152 135 2 nan 12 12 26 nan nan nan nan nan nan nan nan nan nan nan nan nan nan nan nan nan nan nan nan nan nan nan nan nan nan nan nan nan nan nan nan nan nan nan nan nan 0 0 0 nan nan nan nan 2 3 3 4 5 5 8 7 6 6 7
15 12 7 6 6 4 2 0 nan nan nan nan 2 2 4 18 46 46 101 111 111 133 183 153 153 144 61 46 48 48 9 nan nan nan nan nan nan nan nan nan nan nan nan nan nan nan nan 0 0 nan nan nan nan nan nan nan nan nan nan nan nan nan nan nan nan nan nan nan nan nan nan nan nan nan nan 1 3 3 3 2 2 5 8 8 8 6
6 3 3 2 2 3 3 0 nan nan nan nan 0 0 2 11 22 22 56 84 84 109 103 110 110 95 50 13 2 2 1 nan nan nan nan nan nan nan nan nan nan nan nan nan nan nan nan 0 0 0 nan nan nan nan nan nan nan nan nan nan nan nan nan nan nan nan nan nan nan nan nan nan nan nan 0 1 1 1 0 0 0 4 6 5 5 3
1 0 0 nan nan nan nan nan nan nan nan nan nan nan 0 5 19 19 46 60 60 54 7 25 25 46 15 nan nan nan nan nan nan nan nan nan nan nan nan nan nan nan nan nan nan 0 nan 0 0 0 nan nan nan nan nan nan nan 0 nan nan nan nan nan nan nan nan nan nan nan nan 0 nan nan nan 1 1 nan nan nan nan nan 3 6 3 3 2
2 0 nan 0 0 nan nan nan nan nan nan nan nan nan 0 11 55 55 83 84 84 102 42 13 13 8 4 2 nan nan nan nan nan nan nan nan nan nan nan nan nan nan nan nan nan nan 0 0 0 0 nan nan nan nan nan nan nan nan nan nan nan nan nan nan nan nan nan nan nan nan nan 0 nan nan 0 nan nan nan nan nan nan 4 7 2 2 1
5 3 1 0 0 nan 0 2 2 2 4 9 20 20 49 106 102 102 68 88 88 160 97 34 34 13 8 7 nan nan nan nan nan nan nan nan nan nan nan nan nan nan nan nan nan nan nan 0 0 0 0 nan nan nan nan nan nan 0 0 nan nan nan nan nan nan nan nan nan nan nan nan nan nan nan nan nan nan nan nan nan nan nan 4 nan nan nan
6 5 6 6 6 5 4 24 52 52 76 84 106 106 129 145 125 125 100 115 115 119 95 39 39 15 8 17 1 1 nan nan nan nan nan 0 nan nan nan nan nan nan nan nan nan nan nan 0 0 nan nan nan nan nan nan nan nan nan 1 0 0 nan nan nan nan nan nan nan nan nan nan nan nan nan nan nan nan nan nan nan nan nan nan nan nan nan
40 42 36 37 37 47 72 82 82 82 66 67 77 77 58 50 55 55 63 60 60 61 79 39 39 20 13 20 9 9 nan nan nan nan nan nan nan nan 0 nan nan nan nan nan nan nan nan nan nan nan nan nan nan nan nan nan nan nan 0 1 1 nan nan nan nan nan nan nan nan nan nan nan nan nan nan nan nan nan nan nan nan nan nan nan nan nan
47 43 44 52 52 48 46 40 24 24 17 17 24 24 25 28 38 38 49 55 55 66 71 39 39 18 14 21 12 12 nan nan nan nan nan nan 0 0 nan nan nan nan nan nan nan nan nan nan nan nan nan nan nan nan nan nan nan nan nan nan nan nan nan nan nan nan nan nan nan nan nan nan nan nan nan nan nan nan nan nan nan nan 0 nan nan nan
8 9 9 11 11 14 15 12 12 12 10 7 8 8 24 59 84 84 73 79 79 78 65 22 22 8 6 11 10 10 6 nan nan nan nan nan 0 0 nan nan nan nan nan nan nan nan nan nan nan nan nan nan nan nan nan nan nan nan nan nan nan nan nan nan nan nan nan nan nan nan nan nan nan nan nan nan nan nan nan nan nan nan nan nan nan nan
6 7 7 7 7 10 10 9 12 12 14 16 14 14 35 85 102 102 70 73 73 76 45 19 19 8 3 6 9 9 2 nan nan nan nan nan 0 0 nan nan nan nan nan nan nan nan nan nan nan nan nan nan nan nan nan nan nan nan nan nan nan nan nan nan nan nan nan nan nan nan nan nan nan nan nan nan nan nan nan nan nan nan nan nan nan nan
6 6 7 8 8 9 9 9 10 10 10 14 13 13 16 46 63 63 58 63 63 48 34 22 22 9 4 2 4 4 nan nan nan nan nan nan nan nan nan nan nan nan nan nan nan nan nan nan nan nan 0 nan nan nan nan nan nan nan nan nan nan nan nan nan nan nan nan nan nan nan nan nan nan nan nan nan nan nan nan nan nan nan nan nan nan nan
6 7 8 10 10 11 12 8 8 8 7 7 7 7 12 38 59 59 62 55 55 36 30 19 19 3 1 1 1 1 nan nan nan nan nan nan nan nan nan nan nan nan nan nan nan nan nan nan nan nan nan nan nan nan nan nan nan nan nan nan nan nan nan nan nan nan nan nan nan nan nan nan nan nan nan nan nan nan nan nan nan nan nan nan nan nan